Regional Weather Roundup
Issued by NWS

Home | Current Version | Previous Version | Text Only | Print | Product List | Glossary On
Versions: 1 2 3 4 5 6 7 8 9 10 11 12 13 14 15 16 17 18 19 20 21 22 23 24 25 26 27 28 29 30 31 32 33 34 35 36 37 38 39 40 41 42 43 44 45 46 47 48 49 50
000
ASUS43 KBIS 271002
RWRND

NORTH DAKOTA REGIONAL WEATHER ROUNDUP
NATIONAL WEATHER SERVICE BISMARCK ND
500 AM CDT TUE JUN 27 2017

NOTE: "FAIR" INDICATES FEW OR NO CLOUDS BELOW 12,000 FEET WITH NO
SIGNIFICANT WEATHER AND/OR OBSTRUCTIONS TO VISIBILITY.


NDZ001>003-009>011-017-271100-
NORTHWEST NORTH DAKOTA

CITY           SKY/WX    TMP DP  RH WIND       PRES   REMARKS
WILLISTON      CLOUDY    67  42  40 S13G22    29.72F
MINOT          PTCLDY    63  38  39 S21G31    29.79F
MINOT AFB      CLOUDY    62  40  44 S20G25    29.78F
$$

NDZ018>021-031>035-040>046-271100-
SOUTHWEST NORTH DAKOTA

CITY           SKY/WX    TMP DP  RH WIND       PRES   REMARKS
BISMARCK       CLOUDY    58  40  51 SE13      29.90F
DICKINSON      CLOUDY    58  33  39 S18G29    29.76F
GARRISON         N/A     60  39  45 S17       29.83F
HETTINGER ARPT PTCLDY    57  37  47 SE9       29.83F
$$

NDZ004>008-012>016-024-026-027-054-271100-
NORTHEAST NORTH DAKOTA

CITY           SKY/WX    TMP DP  RH WIND       PRES   REMARKS
GRAND FORKS    CLOUDY    49  44  83 S7        29.94F
GRND FRKS AFB  CLOUDY    49  42  76 S7        29.94F
DEVILS LAKE    CLOUDY    57  43  59 S14       29.92F
$$

NDZ022-023-025-028>030-036>039-047>053-271100-
SOUTHEAST NORTH DAKOTA

CITY           SKY/WX    TMP DP  RH WIND       PRES   REMARKS
FARGO          CLEAR     52  42  69 S9        29.99F
JAMESTOWN      CLOUDY    53  40  61 S10       29.96F
$$





USA.gov is the U.S. government's official web portal to all federal, state and local government web resources and services.